Location: Unspecified
(0.0000°N, 0.0000°E)
Time: 13:37:25
(UTC+00:00)

Vanguard 1 Rocket - Pass Details

Date: 22 November 2019
Orbit: 650 x 4226 km, 34.3° (Epoch: 08 December)

Event Time Altitude Azimuth Distance (km) Brightness Sun altitude
Rises 10:19:51 0° 304° (WNW) 4,459 10.6 60.9°
Reaches altitude 10° 10:22:11 10° 303° (WNW) 3,786 10.4 61.3°
Maximum altitude 10:32:46 82° 217° (SW) 2,482 11.0 63.1°
Drops below altitude 10° 10:54:05 10° 130° (SE) 6,963 12.4 66.2°
Sets 11:00:20 0° 129° (SE) 8,283 12.6 67.0°
